Regional Weather Roundup
Issued by NWS

Home | Current Version | Previous Version | Text Only | Print | Product List | Glossary On
Versions: 1 2 3 4 5 6 7 8 9 10 11 12 13 14 15 16 17 18 19 20 21 22 23 24 25 26 27 28 29 30 31 32 33 34 35 36 37 38 39 40 41 42 43 44 45 46 47 48 49 50
000
ASUS44 KLUB 040101
RWRTX
WEST TEXAS WEATHER ROUNDUP
NATIONAL WEATHER SERVICE LUBBOCK TX
800 PM CDT TUE MAY 03 2016

NOTE: "FAIR" INDICATES FEW OR NO CLOUDS BELOW 12,000 FEET WITH NO
SIGNIFICANT WEATHER AND/OR OBSTRUCTIONS TO VISIBILITY.

TXZ004-006>008-010-012-014-016-OKZ002-040200-
TEXAS PANHANDLE/OKLAHOMA PANHANDLE

CITY           SKY/WX    TMP DP  RH WIND       PRES   REMARKS
AMARILLO       CLEAR     64  35  34 N15       30.12R
BORGER         CLEAR     67  33  28 N14G24    30.10R
CANADIAN       CLEAR     67  42  40 N7        30.05R
DALHART        CLEAR     66  30  26 N13       30.14R
DUMAS          CLEAR     62  38  40 N8        30.12S
GUYMON         CLEAR     64  37  36 N10       30.09R
HEREFORD       CLEAR     69  35  29 N20       30.13R
$$

TXZ026-029-035-045-048-040200-
SOUTHERN PANHANDLE/SOUTH PLAINS/ROLLING PLAINS

CITY           SKY/WX    TMP DP  RH WIND       PRES   REMARKS
CHILDRESS      MOCLDY    62  49  62 SE9       30.06R
SEMINOLE       PTCLDY    69  41  35 NE14      30.10R
LUBBOCK        PTCLDY    63  47  55 CALM      30.10R
SNYDER           N/A     62  53  73 NE13G18   30.09R
$$

TXZ052-054-060>062-072-078-127-140-154-169-040200-
PERMIAN BASIN/CONCHO VALLEY/BIG COUNTRY/EDWARDS PLATEAU

CITY           SKY/WX    TMP DP  RH WIND       PRES   REMARKS
ABILENE        LGT RAIN  60  56  86 E9        30.09R FOG
BROWNWOOD      PTCLDY    68  52  56 E5        30.04S
JUNCTION       CLEAR     73  45  36 E7        30.03R
MIDLAND        LGT RAIN  76  41  28 NE22G32   30.04R
ODESSA         CLEAR     80  32  17 N15       30.05R
SAN ANGELO     CLEAR     75  45  34 CALM      30.02S
WINK           CLEAR     81  32  17 NE3       30.01R
$$

TXZ055-058-074-075-080-082-040200-
FAR WEST/SOUTHWEST MOUNTAINS/TRANS PECOS

CITY           SKY/WX    TMP DP  RH WIND       PRES   REMARKS
DRYDEN           N/A     78  47  33 E14       30.00R
EL PASO        PTCLDY    81  26  13 N8        30.03S
FORT STOCKTON  PTCLDY    78  37  22 NE8       30.03R
MARFA          PTCLDY    73  33  23 NE16      30.10R
PRESIDIO       FAIR      86  36  17 MISG      29.92S
$$

TXZ014-016-019-021>030-083-040200
TEXAS TECH WEST TEXAS MESONET/TEXAS PANHANDLE/NORTHERN SOUTH PLAINS

CITY           SKY/WX    TMP DP  RH WIND       PRES   REMARKS
ABERNATHY 5ENE   N/A     62  51  65 S5        30.12S
AMARILLO 9NNE    N/A     65  36  33 N15       30.12R
AMARILLO 7SSE    N/A     65  35  32 N17       30.14R
AMHERST 1NE      N/A     69  31  24 N13       30.13R
BOOTLEG 11WNW    N/A     66  29  24 N13       30.18R
CANADIAN 6E      N/A     66  40  38 N12       30.04R
CAPROCK CYN SP   N/A     69  39  33 NE6       30.08R
CHILDRESS 2NNE   N/A     60  52  73 S8        30.07R
CLARENDON 2WSW   N/A     67  35  30 NW13      30.08S
CLAUDE 12SW      N/A     65  35  32 N13       30.12R
DIMMITT 2NE      N/A     67  31  25 N14       30.13R
FLOYDADA 2NNE    N/A     63  48  57 S6        30.08S
FRIONA 2NE       N/A     67  30  24 N14       30.15R
GOODLETT 3W      N/A     62  53  73 SW5       30.05R
HART 3N          N/A     68  30  24 N16       30.12S
HEREFORD 2NW     N/A     67  31  26 N15       30.15R
MCLEAN 1E        N/A     64  39  38 N7        30.07R
MEMPHIS 1NE      N/A     64  48  54 E3        30.06S
MULESHOE 2SSW    N/A     70  28  21 N10       30.14R
OLTON 6S         N/A     68  32  26 N12       30.12R
PALO DURO SP     N/A     67  34  29 N17       30.13R
PAMPA 2E         N/A     63  40  41 NW12      30.10R
PLAINVIEW 1S     N/A     66  46  47 SW3       30.11R
SILVERTON 7ESE   N/A     65  39  38 NE7       30.08R
TULIA 2ENE       N/A     66  38  35 N12       30.12R
TURKEY 2WSW      N/A     69  48  47 SE6       30.07S
UMBARGER 3NNE    N/A     66  35  31 N15       30.14R
$$

TXZ033>036-039>041-045>048-040200
TEXAS TECH WEST TEXAS MESONET/SOUTH PLAINS

CITY           SKY/WX    TMP DP  RH WIND       PRES   REMARKS
AIKEN 3WSW       N/A     65  47  51 S6        30.11R
ANDREWS 2NE      N/A     73  38  28 NE12      30.09R
ANTON 6SSW       N/A     67  45  44 NE9       30.12R
BROWNFIELD 2S    N/A     64  50  60 E12       30.11S
DENVR CTY 7WNW   N/A     71  33  25 N14       30.11S
GAIL 2ESE        N/A     66  49  53 NE14G22   30.09R
LAMESA 2SE       N/A     65  48  52 NE13G22   30.11R
LEVELLAND 4S     N/A     67  40  38 NE13      30.12R
LUBBOCK 3WNW     N/A     65  44  45 NE5       30.12R
MORTON 1ENE      N/A     71  30  21 N12       30.13R
ODONNELL 1N      N/A     65  44  45 NE14      30.12R
PLAINS 3N        N/A     70  37  29 N13       30.12R
RALLS 1SE        N/A     63  50  63 SE3       30.11S
REESE CENTER     N/A     65  45  47 NE7       30.13R
SEAGRAVES 1SW    N/A     71  41  34 E9        30.11S
SEMINOLE 2NNE    N/A     70  40  33 NE16      30.10R
SLATON 2NE       N/A     65  44  45 N3        30.11S
SNYDER 3E        N/A     61  53  74 NE14      30.09R
SUNDOWN 8SW      N/A     71  32  23 N13       30.12R
TAHOKA 3NNE      N/A     65  46  50 NE6       30.11R
WOLFFORTH 6SSW   N/A     67  44  43 NE10      30.12R
$$

TXZ031-032-036>038-042>044-040200-
TEXAS TECH WEST TEXAS MESONET/ROLLING PLAINS

CITY           SKY/WX    TMP DP  RH WIND       PRES   REMARKS
ASPERMONT 3NE    N/A     60  56  88 E2        30.07F
FLUVANNA 3WNW    N/A     64  49  58 NE13      30.10R
GRAHAM 5SSW      N/A     64  48  55 NE9       30.11R
GUTHRIE 10WSW    N/A     64  51  61 SE8       30.05F
HASKELL 1NW      N/A     61  52  73 S1        30.09R
JAYTON 1SSE      N/A     63  53  69 NE3       30.08R
KNOX CITY 3NW    N/A     62  54  75 E1        30.08R
LK A HENRY 1NW   N/A     65  50  60 E8        30.09S
NORTHFIELD 1S    N/A     68  49  52 SE6       30.06S
ODELL 4ENE       N/A     65  55  71 S3        30.05F
PADUCAH 10SW     N/A     64  51  62 SE7       30.07S
POST 1NE         N/A     65  47  53 E2        30.09S
RRING SPRGS 3N   N/A     65  51  61 S6        30.07F
SEYMOUR 3NW      N/A     60  56  85 SE2       30.07R
SPUR 1W          N/A     62  52  69 S3        30.08R
WEINERT 2NNE     N/A     60  56  87 E3        30.08R
$$

TXZ052-054-060>062-072-078-127-140-154-169-040200-
TEXAS TECH WEST TEXAS MESONET/PERMIAN BASIN/
CONCHO VALLEY/BIG COUNTRY/EDWARDS PLATEAU

CITY           SKY/WX    TMP DP  RH WIND       PRES   REMARKS
COYANOSA 2N      N/A     81  34  18 NE9       30.02R
JUNCTION 1SSW    N/A     73  46  37 NE7       30.05R
MERTZON 3NNE     N/A     75  46  35 E2        30.05S
SAN ANGELO 7NW   N/A     76  40  27 E2        30.04S
STRLNG CT 4WSW   N/A     69  49  49 NE14      30.06R
ST LAWRNCE 5SW   N/A     76  38  25 SE8       30.04S
SWEETWATR 11SW   N/A     60  53  77 NE15      30.10S
WALL 1E          N/A     76  41  28 E5        30.05S
$$

TXZ055-058-074-075-080-082-040200-
TEXAS TECH WEST TEXAS MESONET/FAR WEST/SOUTHWEST MOUNTAINS/TRANS PECOS

CITY           SKY/WX    TMP DP  RH WIND       PRES   REMARKS
PRSMN GAP BBNP   N/A     80  41  24 NE15      29.98S
GUADLPE MTN NP   N/A     67  29  23 NE8       30.18S
$$




USA.gov is the U.S. government's official web portal to all federal, state and local government web resources and services.